• In Uzbekistan
  • List of Countries
  • For 7 days
  • Water Temperature
  • Satellite Maps
  • Weather Map
  • Weather Widgets
  • user-avatar
    Login

    Hourly Weather Neuquén

    Today, 25 May, Thursday

    Time Temperature Precipitation Wind Pressure Humidity
    00:00 +8°C° 0 mm 1 mps 734 mmHg 35%
    01:00 +8°C° 0 mm 1 mps 734 mmHg 35%
    02:00 +7°C° 0 mm 1 mps 734 mmHg 37%
    03:00 +7°C° 0 mm 1 mps 734 mmHg 38%
    04:00 +7°C° 0 mm 1 mps 734 mmHg 39%
    05:00 +7°C° 0 mm 1 mps 734 mmHg 40%
    06:00 +7°C° 0 mm 1 mps 734 mmHg 41%
    07:00 +6°C° 0 mm 2 mps 734 mmHg 42%
    08:00 +8°C° 0 mm 2 mps 734 mmHg 40%
    09:00 +10°C° 0 mm 2 mps 735 mmHg 37%
    10:00 +11°C° 0 mm 3 mps 735 mmHg 35%
    11:00 +12°C° 0 mm 4 mps 734 mmHg 33%
    12:00 +13°C° 0 mm 5 mps 734 mmHg 31%
    13:00 +14°C° 0 mm 6 mps 733 mmHg 29%
    14:00 +14°C° 0 mm 5 mps 733 mmHg 29%
    15:00 +13°C° 0 mm 5 mps 734 mmHg 29%
    16:00 +12°C° 0 mm 4 mps 734 mmHg 28%
    17:00 +10°C° 0 mm 5 mps 734 mmHg 34%
    18:00 +9°C° 0 mm 6 mps 735 mmHg 39%
    19:00 +9°C° 0 mm 6 mps 735 mmHg 44%
    20:00 +8°C° 0 mm 6 mps 736 mmHg 47%
    21:00 +8°C° 0 mm 7 mps 736 mmHg 50%
    22:00 +6°C° 0 mm 7 mps 737 mmHg 53%
    23:00 +7°C° 0 mm 6 mps 737 mmHg 55%

    Tomorrow, 26 May, Friday

    Time Temperature Precipitation Wind Pressure Humidity
    00:00 +7°C° 0 mm 6 mps 737 mmHg 57%
    01:00 +6°C° 0 mm 5 mps 738 mmHg 59%
    02:00 +6°C° 0 mm 5 mps 738 mmHg 62%
    03:00 +5°C° 0 mm 5 mps 738 mmHg 64%
    04:00 +5°C° 0 mm 4 mps 739 mmHg 67%
    05:00 +5°C° 0 mm 4 mps 739 mmHg 67%
    06:00 +4°C° 0 mm 3 mps 740 mmHg 68%
    07:00 +4°C° 0 mm 3 mps 741 mmHg 69%
    08:00 +7°C° 0 mm 3 mps 742 mmHg 61%
    09:00 +9°C° 0 mm 3 mps 742 mmHg 53%
    10:00 +10°C° 0 mm 3 mps 743 mmHg 45%
    11:00 +11°C° 0 mm 3 mps 743 mmHg 43%
    12:00 +11°C° 0 mm 3 mps 743 mmHg 42%
    13:00 +12°C° 0 mm 3 mps 743 mmHg 40%
    14:00 +11°C° 0 mm 3 mps 742 mmHg 42%
    15:00 +12°C° 0 mm 2 mps 742 mmHg 44%
    16:00 +10°C° 0 mm 2 mps 742 mmHg 47%
    17:00 +9°C° 0 mm 3 mps 743 mmHg 51%
    18:00 +8°C° 0 mm 3 mps 743 mmHg 55%
    19:00 +8°C° 0 mm 3 mps 743 mmHg 59%
    20:00 +7°C° 0 mm 3 mps 744 mmHg 62%
    21:00 +7°C° 0 mm 3 mps 744 mmHg 65%
    22:00 +5°C° 0 mm 3 mps 744 mmHg 68%
    23:00 +5°C° 0 mm 3 mps 744 mmHg 72%

    Day after tomorrow, 27 May, Saturday

    Time Temperature Precipitation Wind Pressure Humidity
    00:00 +5°C° 0 mm 3 mps 744 mmHg 75%
    01:00 +4°C° 0 mm 3 mps 744 mmHg 78%
    02:00 +4°C° 0 mm 3 mps 743 mmHg 81%
    03:00 +4°C° 0 mm 3 mps 743 mmHg 83%
    04:00 +3°C° 0 mm 3 mps 743 mmHg 86%
    05:00 +3°C° 0 mm 3 mps 743 mmHg 87%
    06:00 +3°C° 0 mm 4 mps 743 mmHg 89%
    07:00 +3°C° 0 mm 4 mps 743 mmHg 90%
    08:00 +5°C° 0 mm 5 mps 743 mmHg 80%
    09:00 +7°C° 0 mm 6 mps 742 mmHg 70%
    10:00 +8°C° 0 mm 7 mps 742 mmHg 61%
    11:00 +9°C° 0 mm 7 mps 741 mmHg 56%
    12:00 +10°C° 0 mm 7 mps 741 mmHg 51%
    13:00 +12°C° 0 mm 7 mps 740 mmHg 46%
    14:00 +11°C° 0 mm 6 mps 739 mmHg 48%
    15:00 +10°C° 0 mm 5 mps 739 mmHg 49%
    16:00 +11°C° 0 mm 4 mps 738 mmHg 51%
    17:00 +10°C° 0 mm 4 mps 738 mmHg 56%
    18:00 +8°C° 0 mm 4 mps 738 mmHg 60%
    19:00 +7°C° 0 mm 5 mps 739 mmHg 65%
    20:00 +6°C° 0 mm 4 mps 738 mmHg 69%
    21:00 +6°C° 0 mm 4 mps 738 mmHg 72%
    22:00 +6°C° 0 mm 4 mps 738 mmHg 76%
    23:00 +5°C° 0 mm 3 mps 738 mmHg 78%

    28 May, Sunday

    Time Temperature Precipitation Wind Pressure Humidity
    00:00 +5°C° 0 mm 3 mps 737 mmHg 80%
    01:00 +4°C° 0 mm 3 mps 737 mmHg 82%
    02:00 +5°C° 0 mm 2 mps 737 mmHg 83%
    03:00 +5°C° 0 mm 2 mps 736 mmHg 84%
    04:00 +5°C° 0 mm 1 mps 736 mmHg 85%
    05:00 +5°C° 0 mm 1 mps 736 mmHg 85%
    06:00 +5°C° 0 mm 1 mps 736 mmHg 85%
    07:00 +5°C° 0 mm 1 mps 736 mmHg 84%
    08:00 +7°C° 0 mm 1 mps 736 mmHg 73%
    09:00 +9°C° 0 mm 1 mps 736 mmHg 63%
    10:00 +12°C° 0 mm 1 mps 736 mmHg 52%
    11:00 +12°C° 0 mm 0 mps 736 mmHg 48%
    12:00 +13°C° 0 mm 0 mps 735 mmHg 44%
    13:00 +14°C° 0 mm 0 mps 734 mmHg 39%
    14:00 +14°C° 0 mm 1 mps 734 mmHg 42%
    15:00 +13°C° 0 mm 1 mps 734 mmHg 45%
    16:00 +12°C° 0 mm 1 mps 734 mmHg 48%
    17:00 +11°C° 0 mm 1 mps 735 mmHg 51%
    18:00 +11°C° 0 mm 1 mps 736 mmHg 53%
    19:00 +10°C° 0 mm 1 mps 736 mmHg 56%
    20:00 +9°C° 0 mm 1 mps 737 mmHg 57%
    21:00 +9°C° 0 mm 1 mps 737 mmHg 58%
    22:00 +9°C° 0 mm 1 mps 737 mmHg 59%
    23:00 +7°C° 0 mm 2 mps 738 mmHg 60%

    29 May, Monday

    Time Temperature Precipitation Wind Pressure Humidity
    00:00 +7°C° 0 mm 2 mps 738 mmHg 62%
    01:00 +7°C° 0 mm 3 mps 738 mmHg 64%
    02:00 +5°C° 0 mm 3 mps 739 mmHg 64%
    03:00 +5°C° 0 mm 3 mps 739 mmHg 64%
    04:00 +4°C° 0 mm 4 mps 740 mmHg 65%
    05:00 +4°C° 0 mm 3 mps 740 mmHg 65%
    06:00 +4°C° 0 mm 3 mps 741 mmHg 66%
    07:00 +3°C° 0 mm 3 mps 741 mmHg 66%
    08:00 +5°C° 0 mm 3 mps 742 mmHg 61%
    09:00 +7°C° 0 mm 2 mps 742 mmHg 56%
    10:00 +9°C° 0 mm 2 mps 743 mmHg 51%
    11:00 +10°C° 0 mm 2 mps 743 mmHg 49%
    12:00 +12°C° 0 mm 1 mps 742 mmHg 46%
    13:00 +12°C° 0 mm 1 mps 742 mmHg 43%
    14:00 +12°C° 0 mm 1 mps 742 mmHg 46%
    15:00 +11°C° 0 mm 1 mps 742 mmHg 48%
    16:00 +10°C° 0 mm 1 mps 742 mmHg 51%
    17:00 +10°C° 0 mm 1 mps 742 mmHg 54%
    18:00 +9°C° 0 mm 1 mps 742 mmHg 57%
    19:00 +7°C° 0 mm 2 mps 742 mmHg 60%
    20:00 +7°C° 0 mm 2 mps 742 mmHg 62%
    21:00 +7°C° 0 mm 2 mps 742 mmHg 64%
    22:00 +5°C° 0 mm 3 mps 742 mmHg 66%
    23:00 +5°C° 0 mm 3 mps 741 mmHg 70%

    30 May, Tuesday

    Time Temperature Precipitation Wind Pressure Humidity
    00:00 +5°C° 0 mm 3 mps 741 mmHg 74%
    01:00 +4°C° 0 mm 3 mps 741 mmHg 78%
    02:00 +4°C° 0 mm 3 mps 740 mmHg 79%
    03:00 +4°C° 0 mm 3 mps 740 mmHg 79%
    04:00 +4°C° 0 mm 3 mps 739 mmHg 80%
    05:00 +5°C° 0 mm 2 mps 739 mmHg 80%
    06:00 +5°C° 0 mm 2 mps 739 mmHg 80%
    07:00 +4°C° 0 mm 2 mps 739 mmHg 80%
    08:00 +7°C° 0 mm 2 mps 739 mmHg 69%
    09:00 +9°C° 0 mm 2 mps 738 mmHg 57%
    10:00 +13°C° 0 mm 2 mps 738 mmHg 46%
    11:00 +14°C° 0 mm 2 mps 737 mmHg 42%
    12:00 +15°C° 0 mm 2 mps 737 mmHg 37%
    13:00 +16°C° 0 mm 2 mps 736 mmHg 33%
    14:00 +15°C° 0 mm 2 mps 736 mmHg 36%
    15:00 +14°C° 0 mm 2 mps 735 mmHg 39%
    16:00 +13°C° 0 mm 1 mps 735 mmHg 42%
    17:00 +12°C° 0 mm 1 mps 735 mmHg 43%
    18:00 +11°C° 0 mm 1 mps 735 mmHg 44%
    19:00 +10°C° 0 mm 1 mps 735 mmHg 45%
    20:00 +10°C° 0 mm 1 mps 735 mmHg 45%
    21:00 +10°C° 0 mm 1 mps 735 mmHg 46%
    22:00 +8°C° 0 mm 2 mps 735 mmHg 46%
    23:00 +8°C° 0 mm 2 mps 735 mmHg 44%
    Show more